Regional Weather Roundup
Issued by NWS Sioux Falls, SD

Home | Current Version | Previous Version | Text Only | Print | Product List | Glossary On
Versions: 1 2 3 4 5 6 7 8 9 10 11 12 13 14 15 16 17 18 19 20 21 22 23 24 25 26 27 28 29 30 31 32 33 34 35 36 37 38 39 40 41 42 43 44 45 46 47 48 49 50
000
ASUS43 KFSD 241402
RWRFSD

WEATHER ROUNDUP FOR SE SOUTH DAKOTA/SW MINNESOTA/NW IOWA
NATIONAL WEATHER SERVICE SIOUX FALLS SD
900 AM CDT FRI APR 24 2015

NOTE: "FAIR" INDICATES FEW OR NO CLOUDS BELOW 12,000 FEET WITH NO
SIGNIFICANT WEATHER AND OR OBSTRUCTIONS TO VISIBILITY.


SDZ038>040-050-052>070-241500-
SOUTHEAST SOUTH DAKOTA

CITY           SKY/WX    TMP DP  RH WIND       PRES   REMARKS
BROOKINGS      MOSUNNY   50  39  66 S21G26    29.70S
CHAMBERLAIN    NOT AVBL
HURON          MOSUNNY   55  40  56 SE15      29.61S
MADISON        FAIR      50  41  71 S21G26    29.68S
MITCHELL       PTSUNNY   54  41  61 S20G28    29.64S
SIOUX FALLS    CLOUDY    51  41  68 SE14      29.72R
WINNER         FAIR      58  45  62 SW15      29.58F
YANKTON        CLOUDY    54  41  62 S18       29.69F
$$

MNZ071-072-080-081-089-090-097-098-241500-
SOUTHWEST MINNESOTA

CITY           SKY/WX    TMP DP  RH WIND       PRES   REMARKS
FAIRMONT       CLOUDY    45   7  21 SE18      29.82F
JACKSON        CLOUDY    45  37  76 SE14      29.80F
LUVERNE        CLOUDY    48  41  76 SE14G21   29.75R
MARSHALL       CLOUDY    50  37  62 S22G28    29.72S
MONTEVIDEO     HVY RAIN  43  37  81 SE14      29.78F
REDWOOD FALLS  CLOUDY    49  39  68 SE21G29   29.75F
TRACY          CLOUDY    48  41  77 S25G35    29.71R
WORTHINGTON    CLOUDY    48  34  57 SE18G28   29.78F
$$

IAZ001>003-012>014-020>022-031-032-NEZ013-014-SDZ071-241500-
NORTHWEST IOWA

CITY           SKY/WX    TMP DP  RH WIND       PRES   REMARKS
DENISON        LGT RAIN  50  45  81 SE12      29.76F
ESTHERVILLE    LGT RAIN  44  39  82 SE20      29.81F
SIOUX CITY     CLOUDY    56  38  50 S16       29.75S
SPENCER        CLOUDY    48  37  65 SE16      29.80S
$$

ABBREVIATIONS USED IN REMARKS
   TC - TEMPERATURE IN CELSIUS
  WCI - WIND CHILL INDEX
   HX - HEAT INDEX
  VSB - VISIBILITY




USA.gov is the U.S. government's official web portal to all federal, state and local government web resources and services.